Overview Statistics Trail Chart Weather Telemetry Raw packets
 

This is the latest recevied weather packets stored in our database for station/object HB9FHL-13. If no packets are shown the sender has not sent any weather packets the latest 10 day(s).

<< 29 30 31 32 33 34 35 >>
Time Temp. Humidity Pressure Rain* Wind** Luminosity Snow
1788508222 20.56° C - 1023.6 hPa 0 mm - - -
1788508215 20.56° C - 1023.6 hPa 0 mm - - -
1788507917 21.11° C - 1025.3 hPa 0 mm - - -
1788507914 21.11° C - 1025.3 hPa 0 mm - - -
1788507612 21.11° C - 1024.1 hPa 0 mm - - -
1788507014 21.67° C - 1023.5 hPa 0 mm - - -
1788507011 21.67° C - 1023.5 hPa 0 mm - - -
1788506413 22.78° C - 1023.5 hPa 0 mm - - -
1788506409 22.78° C - 1023.5 hPa 0 mm - - -
1788506113 22.22° C - 1023 hPa 0 mm - - -
1788506108 22.22° C - 1023 hPa 0 mm - - -
1788505813 22.78° C - 1025.1 hPa 0 mm - - -
1788505810 22.78° C - 1025.1 hPa 0 mm - - -
1788505511 21.67° C - 1022 hPa 0 mm - - -
1788505507 21.67° C - 1022 hPa 0 mm - - -
1788505208 21.67° C - 1024.5 hPa 0 mm - - -
1788504909 22.22° C - 1023.4 hPa 0 mm - - -
1788504906 22.22° C - 1023.4 hPa 0 mm - - -
1788504684 22.22° C - 1024.2 hPa 0 mm - - -
1788504684 22.22° C - 1024.2 hPa 0 mm - - -
1788504611 22.22° C - 1024.2 hPa 0 mm - - -
1788504606 22.22° C - 1024.2 hPa 0 mm - - -
1788504304 22.22° C - 1025.9 hPa 0 mm - - -
1788504008 23.33° C - 1024 hPa 0 mm - - -
1788504004 23.33° C - 1024 hPa 0 mm - - -

* Rain since midnight (hover to see other rain measurements)
** Current wind speed in m/s (hover to see current wind gust speed)